This is the latest recevied weather packets stored in our database for station/object WV5G-13. If no packets are shown the sender has not sent any weather packets the latest 10 day(s).
| Time | Temp. | Humidity | Pressure | Rain* | Wind** | Luminosity | Snow |
|---|---|---|---|---|---|---|---|
| 1777841554 | 25.56° C | 23% | 1011.9 hPa | 0 mm | - | 775 W/m² | - |
| 1777841250 | 25.56° C | 22% | 1012 hPa | 0 mm | - | 787 W/m² | - |
| 1777840948 | 25° C | 23% | 1012.2 hPa | 0 mm | - | 823 W/m² | - |
| 1777840645 | 25° C | 23% | 1012.2 hPa | 0 mm | - | 585 W/m² | - |
| 1777840342 | 25° C | 21% | 1012.5 hPa | 0 mm | - | 841 W/m² | - |
| 1777840039 | 25.56° C | 22% | 1012.6 hPa | 0 mm | - | 846 W/m² | - |
| 1777839737 | 26.11° C | 23% | 1012.9 hPa | 0 mm | - | 842 W/m² | - |
| 1777839435 | 25° C | 23% | 1013 hPa | 0 mm | - | 817 W/m² | - |
| 1777839132 | 25.56° C | 23% | 1013 hPa | 0 mm | - | 870 W/m² | - |
| 1777838828 | 24.44° C | 24% | 1013 hPa | 0 mm | - | 831 W/m² | - |
| 1777838525 | 24.44° C | 24% | 1013.1 hPa | 0 mm | - | 739 W/m² | - |
| 1777838222 | 24.44° C | 24% | 1013.2 hPa | 0 mm | - | 821 W/m² | - |
| 1777837919 | 24.44° C | 24% | 1013 hPa | 0 mm | - | 754 W/m² | - |
| 1777837616 | 24.44° C | 24% | 1013.3 hPa | 0 mm | - | 840 W/m² | - |
| 1777837311 | 25° C | 25% | 1013.6 hPa | 0 mm | - | 868 W/m² | - |
| 1777837008 | 23.89° C | 25% | 1013.6 hPa | 0 mm | - | 788 W/m² | - |
| 1777836704 | 23.33° C | 23% | 1013.7 hPa | 0 mm | - | 784 W/m² | - |
| 1777836400 | 23.33° C | 24% | 1013.5 hPa | 0 mm | - | 790 W/m² | - |
| 1777836095 | 24.44° C | 24% | 1013.7 hPa | 0 mm | - | 877 W/m² | - |
| 1777835792 | 23.89° C | 24% | 1013.7 hPa | 0 mm | - | 859 W/m² | - |
| 1777835489 | 23.89° C | 23% | 1014 hPa | 0 mm | - | 844 W/m² | - |
| 1777835186 | 24.44° C | 24% | 1013.7 hPa | 0 mm | - | 763 W/m² | - |
| 1777834883 | 23.33° C | 25% | 1014.2 hPa | 0 mm | - | 843 W/m² | - |
| 1777834580 | 23.89° C | 25% | 1014.1 hPa | 0 mm | - | 867 W/m² | - |
| 1777834275 | 23.33° C | 26% | 1014.2 hPa | 0 mm | - | 942 W/m² | - |
* Rain latest hour (hover to see other rain measurements)
** Current wind speed in m/s (hover to see current wind gust speed)